C/2003 G1 ( LINEAR )

Japanese version
Home page
Total 6,336 html files since Dec. 4, 1995
Updated on October 21, 2004

---------------------------------------------------------------------

* Profile

Discovery Date April 8, 2003
Magnitude 17.0 mag
Discoverer Lincoln Laboratory Near-Earth Asteroid Research project

* Pictures

* Orbital Elements

Epoch 2003 Feb. 10.0 TT = JDT 2452680.5
T 2003 Feb. 3.66038 TT                                  MPC
q   4.9163010            (2000.0)            P               Q
z  -0.0002543      Peri.   11.42237     -0.32608174     +0.43246387
 +/-0.0000052      Node   246.09204     -0.92352584     -0.33566138
e   1.0012503      Incl.   66.85587     -0.20191764     +0.83684314
>From 954 observations 2003 Apr. 8-Aug. 4, mean residual 0".58.

* Finding Charts

* Magnitudes Graph

        m1 = 5.3 + 5 log d + 10.0 log r

---------------------------------------------------------------------

The orbital elements are published on M.P.E.C. 2003-P15.
The charts are made with StellaNavigator Ver.2.0 for Windows (AstroArts / ASCII).
The magnitudes graphs are made with Comet for Windows.

---------------------------------------------------------------------

Copyright(C) 1995-2008 Seiichi Yoshida (comet@aerith.net). All rights reserved.